Time,TemperatureF,DewpointF,PressureIn,WindDirection,WindDirectionDegrees,WindSpeedMPH,WindSpeedGustMPH,Humidity,HourlyPrecipIn,Conditions,Clouds,dailyrainin,SoftwareType,DateUTC
2013-05-31 00:00:00,77.1,68.2,29.91,South,179,3.0,11.0,74,0.00,,,0.01,VWS V14.01,2013-05-31 04:00:00,
2013-05-31 00:01:00,77.3,68.0,29.92,SE,139,7.0,8.0,73,0.00,,,0.00,VWS V14.01,2013-05-31 04:01:00,
2013-05-31 00:06:00,77.5,68.2,29.92,SSW,205,5.0,11.0,73,0.00,,,0.00,VWS V14.01,2013-05-31 04:06:00,
2013-05-31 00:11:00,77.6,68.3,29.92,SSE,158,1.0,11.0,73,0.00,,,0.00,VWS V14.01,2013-05-31 04:11:00,
2013-05-31 00:16:00,77.6,68.3,29.92,SSE,162,6.0,11.0,73,0.00,,,0.00,VWS V14.01,2013-05-31 04:16:00,
2013-05-31 00:21:00,77.6,68.3,29.92,South,172,9.0,11.0,73,0.00,,,0.00,VWS V14.01,2013-05-31 04:21:00,
2013-05-31 00:26:00,77.6,68.3,29.92,SE,125,5.0,13.0,73,0.00,,,0.00,VWS V14.01,2013-05-31 04:26:00,
2013-05-31 00:30:00,77.5,68.2,29.92,South,188,9.0,13.0,73,0.00,,,0.00,VWS V14.01,2013-05-31 04:30:00,
2013-05-31 00:31:00,77.6,68.3,29.91,SSE,150,6.0,9.0,73,0.00,,,0.00,VWS V14.01,2013-05-31 04:31:00,
2013-05-31 00:36:00,77.7,68.4,29.91,ESE,109,18.0,18.0,73,0.00,,,0.00,VWS V14.01,2013-05-31 04:36:00,
2013-05-31 00:41:00,77.7,68.4,29.91,South,183,7.0,18.0,73,0.00,,,0.00,VWS V14.01,2013-05-31 04:41:00,
2013-05-31 00:46:00,77.7,68.4,29.91,SSE,150,6.0,18.0,73,0.00,,,0.00,VWS V14.01,2013-05-31 04:46:00,
2013-05-31 00:51:00,77.7,68.4,29.91,SSE,150,2.0,18.0,73,0.00,,,0.00,VWS V14.01,2013-05-31 04:51:00,
2013-05-31 00:56:00,77.6,68.3,29.91,SSE,158,2.0,18.0,73,0.00,,,0.00,VWS V14.01,2013-05-31 04:56:00,
2013-05-31 01:00:00,77.6,68.3,29.91,South,186,8.0,18.0,73,0.00,,,0.00,VWS V14.01,2013-05-31 05:00:00,
2013-05-31 01:01:00,77.5,68.2,29.92,SSW,201,4.0,10.0,73,0.00,,,0.00,VWS V14.01,2013-05-31 05:01:00,
2013-05-31 01:06:00,77.4,68.1,29.92,ESE,103,6.0,10.0,73,0.00,,,0.00,VWS V14.01,2013-05-31 05:06:00,
2013-05-31 01:11:00,77.2,68.3,29.92,SSE,156,2.0,10.0,74,0.00,,,0.00,VWS V14.01,2013-05-31 05:11:00,
2013-05-31 01:16:00,77.1,68.2,29.92,SSE,150,3.0,10.0,74,0.00,,,0.00,VWS V14.01,2013-05-31 05:16:00,
2013-05-31 01:21:00,77.0,68.1,29.92,SSE,154,9.0,13.0,74,0.00,,,0.00,VWS V14.01,2013-05-31 05:21:00,
2013-05-31 01:26:00,76.9,68.4,29.92,SSE,162,3.0,13.0,75,0.00,,,0.00,VWS V14.01,2013-05-31 05:26:00,
2013-05-31 01:30:00,76.9,68.4,29.92,WSW,240,2.0,13.0,75,0.00,,,0.00,VWS V14.01,2013-05-31 05:30:00,
2013-05-31 01:31:00,76.8,68.3,29.92,SE,142,3.0,10.0,75,0.00,,,0.00,VWS V14.01,2013-05-31 05:31:00,
2013-05-31 01:36:00,76.6,68.1,29.91,ESE,122,3.0,10.0,75,0.00,,,0.00,VWS V14.01,2013-05-31 05:36:00,
2013-05-31 01:41:00,76.5,68.4,29.91,SE,141,4.0,10.0,76,0.00,,,0.00,VWS V14.01,2013-05-31 05:41:00,
2013-05-31 01:46:00,76.4,68.3,29.91,SW,215,2.0,10.0,76,0.00,,,0.00,VWS V14.01,2013-05-31 05:46:00,
2013-05-31 01:51:00,76.2,68.1,29.91,East,98,6.0,10.0,76,0.00,,,0.00,VWS V14.01,2013-05-31 05:51:00,
2013-05-31 01:56:00,76.1,68.4,29.91,SE,142,3.0,10.0,77,0.00,,,0.00,VWS V14.01,2013-05-31 05:56:00,
2013-05-31 02:00:00,76.1,68.4,29.91,East,100,6.0,10.0,77,0.00,,,0.00,VWS V14.01,2013-05-31 06:00:00,
2013-05-31 02:01:00,76.1,68.4,29.91,SE,145,6.0,9.0,77,0.00,,,0.00,VWS V14.01,2013-05-31 06:01:00,
2013-05-31 02:06:00,75.9,68.2,29.90,SSE,159,4.0,9.0,77,0.00,,,0.00,VWS V14.01,2013-05-31 06:06:00,
2013-05-31 02:11:00,75.8,68.1,29.90,SE,145,6.0,9.0,77,0.00,,,0.00,VWS V14.01,2013-05-31 06:11:00,
2013-05-31 02:16:00,75.7,68.0,29.90,SE,145,7.0,10.0,77,0.00,,,0.00,VWS V14.01,2013-05-31 06:16:00,
2013-05-31 02:21:00,75.6,68.3,29.90,SE,143,7.0,10.0,78,0.00,,,0.00,VWS V14.01,2013-05-31 06:21:00,
2013-05-31 02:26:00,75.5,68.2,29.90,ESE,123,2.0,10.0,78,0.00,,,0.00,VWS V14.01,2013-05-31 06:26:00,
2013-05-31 02:30:00,75.5,68.2,29.90,SE,128,4.0,10.0,78,0.00,,,0.00,VWS V14.01,2013-05-31 06:30:00,
2013-05-31 02:31:00,75.3,68.0,29.90,SE,136,3.0,5.0,78,0.00,,,0.00,VWS V14.01,2013-05-31 06:31:00,
2013-05-31 02:36:00,75.1,68.2,29.90,WNW,295,1.0,7.0,79,0.00,,,0.00,VWS V14.01,2013-05-31 06:36:00,
2013-05-31 02:41:00,74.9,67.9,29.90,West,266,0.0,7.0,79,0.00,,,0.00,VWS V14.01,2013-05-31 06:41:00,
2013-05-31 02:46:00,74.6,68.0,29.91,NE,53,0.0,7.0,80,0.00,,,0.00,VWS V14.01,2013-05-31 06:46:00,
2013-05-31 02:51:00,74.3,66.6,29.90,West,274,1.0,7.0,77,0.00,,,0.00,VWS V14.01,2013-05-31 06:51:00,
2013-05-31 02:56:00,74.2,66.5,29.90,South,177,3.0,7.0,77,0.00,,,0.00,VWS V14.01,2013-05-31 06:56:00,
2013-05-31 03:00:00,74.2,66.9,29.90,SSW,203,3.0,7.0,78,0.00,,,0.00,VWS V14.01,2013-05-31 07:00:00,
2013-05-31 03:01:00,74.2,66.9,29.90,SW,226,1.0,5.0,78,0.00,,,0.00,VWS V14.01,2013-05-31 07:01:00,
2013-05-31 03:06:00,74.3,67.0,29.90,ESE,123,1.0,9.0,78,0.00,,,0.00,VWS V14.01,2013-05-31 07:06:00,
2013-05-31 03:11:00,74.4,66.7,29.90,SE,140,1.0,9.0,77,0.00,,,0.00,VWS V14.01,2013-05-31 07:11:00,
2013-05-31 03:16:00,74.2,66.5,29.90,SE,146,0.0,9.0,77,0.00,,,0.00,VWS V14.01,2013-05-31 07:16:00,
2013-05-31 03:21:00,73.9,66.2,29.90,SSW,203,0.0,9.0,77,0.00,,,0.00,VWS V14.01,2013-05-31 07:21:00,
2013-05-31 03:26:00,73.5,66.2,29.90,SSW,210,0.0,9.0,78,0.00,,,0.00,VWS V14.01,2013-05-31 07:26:00,
2013-05-31 03:30:00,73.4,66.1,29.90,SSW,210,0.0,9.0,78,0.00,,,0.00,VWS V14.01,2013-05-31 07:30:00,
2013-05-31 03:31:00,73.1,66.2,29.89,West,264,0.0,1.0,79,0.00,,,0.00,VWS V14.01,2013-05-31 07:31:00,
2013-05-31 03:36:00,72.8,66.3,29.89,SE,142,0.0,1.0,80,0.00,,,0.00,VWS V14.01,2013-05-31 07:36:00,
2013-05-31 03:41:00,72.7,66.2,29.89,SSE,156,0.0,1.0,80,0.00,,,0.00,VWS V14.01,2013-05-31 07:41:00,
2013-05-31 03:46:00,72.6,66.4,29.88,SSE,167,0.0,1.0,81,0.00,,,0.00,VWS V14.01,2013-05-31 07:46:00,
2013-05-31 03:51:00,72.7,66.5,29.88,SE,142,0.0,1.0,81,0.00,,,0.00,VWS V14.01,2013-05-31 07:51:00,
2013-05-31 03:56:00,72.7,66.9,29.88,SE,133,0.0,1.0,82,0.00,,,0.00,VWS V14.01,2013-05-31 07:56:00,
2013-05-31 04:00:00,72.7,66.9,29.88,SSE,162,1.0,2.0,82,0.00,,,0.00,VWS V14.01,2013-05-31 08:00:00,
2013-05-31 04:01:00,72.7,66.9,29.88,East,90,1.0,2.0,82,0.00,,,0.00,VWS V14.01,2013-05-31 08:01:00,
2013-05-31 04:06:00,72.8,67.3,29.88,South,169,4.0,7.0,83,0.00,,,0.00,VWS V14.01,2013-05-31 08:06:00,
2013-05-31 04:11:00,72.9,67.4,29.87,South,180,2.0,7.0,83,0.00,,,0.00,VWS V14.01,2013-05-31 08:11:00,
2013-05-31 04:16:00,72.9,67.1,29.87,SSE,149,5.0,7.0,82,0.00,,,0.00,VWS V14.01,2013-05-31 08:16:00,
2013-05-31 04:21:00,73.1,67.3,29.87,ESE,121,4.0,7.0,82,0.00,,,0.00,VWS V14.01,2013-05-31 08:21:00,
2013-05-31 04:25:00,73.1,67.3,29.87,ESE,110,5.0,8.0,82,0.00,,,0.00,VWS V14.01,2013-05-31 08:25:00,
2013-05-31 04:30:00,73.1,67.3,29.87,SSE,167,2.0,7.0,82,0.00,,,0.00,VWS V14.01,2013-05-31 08:30:00,
2013-05-31 04:35:00,73.0,67.2,29.87,SSE,150,6.0,9.0,82,0.00,,,0.00,VWS V14.01,2013-05-31 08:35:00,
2013-05-31 04:40:00,73.0,67.2,29.87,SE,136,3.0,9.0,82,0.00,,,0.00,VWS V14.01,2013-05-31 08:40:00,
2013-05-31 04:45:00,73.0,67.2,29.87,SE,136,4.0,9.0,82,0.00,,,0.00,VWS V14.01,2013-05-31 08:45:00,
2013-05-31 04:50:00,72.9,67.1,29.86,SSE,155,6.0,9.0,82,0.00,,,0.00,VWS V14.01,2013-05-31 08:50:00,
2013-05-31 04:55:00,72.9,67.1,29.86,ESE,120,2.0,9.0,82,0.00,,,0.00,VWS V14.01,2013-05-31 08:55:00,
2013-05-31 05:00:00,72.9,67.1,29.86,WSW,252,2.0,7.0,82,0.00,,,0.00,VWS V14.01,2013-05-31 09:00:00,
2013-05-31 05:05:00,72.8,67.0,29.86,South,179,3.0,8.0,82,0.00,,,0.00,VWS V14.01,2013-05-31 09:05:00,
2013-05-31 05:10:00,72.8,67.0,29.86,South,170,3.0,8.0,82,0.00,,,0.00,VWS V14.01,2013-05-31 09:10:00,
2013-05-31 05:15:00,72.7,66.9,29.86,SE,140,4.0,9.0,82,0.00,,,0.00,VWS V14.01,2013-05-31 09:15:00,
2013-05-31 05:20:00,72.7,66.9,29.86,SSE,148,4.0,9.0,82,0.00,,,0.00,VWS V14.01,2013-05-31 09:20:00,
2013-05-31 05:25:00,72.7,66.9,29.86,SE,142,4.0,10.0,82,0.00,,,0.00,VWS V14.01,2013-05-31 09:25:00,
2013-05-31 05:30:00,72.7,66.9,29.86,SW,226,3.0,12.0,82,0.00,,,0.00,VWS V14.01,2013-05-31 09:30:00,
2013-05-31 05:35:00,72.7,66.9,29.86,SSE,150,3.0,12.0,82,0.00,,,0.00,VWS V14.01,2013-05-31 09:35:00,
2013-05-31 05:40:00,72.7,66.9,29.86,SSW,195,4.0,12.0,82,0.00,,,0.00,VWS V14.01,2013-05-31 09:40:00,
2013-05-31 05:45:00,72.6,67.2,29.86,SSW,201,5.0,12.0,83,0.00,,,0.00,VWS V14.01,2013-05-31 09:45:00,
2013-05-31 05:50:00,72.3,67.2,29.86,SE,139,4.0,12.0,84,0.00,,,0.00,VWS V14.01,2013-05-31 09:50:00,
2013-05-31 05:55:00,72.1,67.0,29.86,South,176,6.0,12.0,84,0.00,,,0.00,VWS V14.01,2013-05-31 09:55:00,
2013-05-31 06:00:00,72.0,66.9,29.86,SE,142,1.0,7.0,84,0.00,,,0.00,VWS V14.01,2013-05-31 10:00:00,
2013-05-31 06:05:00,72.0,66.9,29.86,SW,218,1.0,7.0,84,0.00,,,0.00,VWS V14.01,2013-05-31 10:05:00,
2013-05-31 06:10:00,71.9,66.8,29.89,SW,222,3.0,8.0,84,0.00,,,0.00,VWS V14.01,2013-05-31 10:10:00,
2013-05-31 06:15:00,71.2,64.0,29.89,SW,228,2.0,8.0,78,0.00,,,0.00,VWS V14.01,2013-05-31 10:15:00,
2013-05-31 06:20:00,70.3,63.5,29.90,SSE,149,2.0,8.0,79,0.00,,,0.00,VWS V14.01,2013-05-31 10:20:00,
2013-05-31 06:25:00,69.5,63.4,29.90,WNW,285,0.0,8.0,81,0.00,,,0.00,VWS V14.01,2013-05-31 10:25:00,
2013-05-31 06:30:00,68.9,63.2,29.92,WSW,238,2.0,7.0,82,0.00,,,0.00,VWS V14.01,2013-05-31 10:30:00,
2013-05-31 06:35:00,68.5,63.1,29.91,NW,321,2.0,7.0,83,0.00,,,0.00,VWS V14.01,2013-05-31 10:35:00,
2013-05-31 06:40:00,67.8,63.1,29.91,West,281,1.0,7.0,85,0.00,,,0.00,VWS V14.01,2013-05-31 10:40:00,
2013-05-31 06:45:00,67.2,63.2,29.91,SW,222,0.0,7.0,87,0.00,,,0.00,VWS V14.01,2013-05-31 10:45:00,
2013-05-31 06:50:00,66.7,63.0,29.91,SW,236,1.0,7.0,88,0.00,,,0.00,VWS V14.01,2013-05-31 10:50:00,
2013-05-31 06:55:00,66.4,63.1,29.92,WSW,238,2.0,7.0,89,0.01,,,0.01,VWS V14.01,2013-05-31 10:55:00,
2013-05-31 07:00:00,66.1,62.8,29.92,SW,214,1.0,4.0,89,0.02,,,0.02,VWS V14.01,2013-05-31 11:00:00,
2013-05-31 07:05:00,65.8,62.8,29.92,SSW,212,0.0,4.0,90,0.06,,,0.06,VWS V14.01,2013-05-31 11:05:00,
2013-05-31 07:10:00,65.5,62.8,29.92,SSE,160,0.0,4.0,91,0.07,,,0.07,VWS V14.01,2013-05-31 11:10:00,
2013-05-31 07:15:00,65.3,62.9,29.92,SSW,195,1.0,5.0,92,0.07,,,0.07,VWS V14.01,2013-05-31 11:15:00,
2013-05-31 07:20:00,65.0,62.6,29.91,SSW,204,1.0,5.0,92,0.09,,,0.09,VWS V14.01,2013-05-31 11:20:00,
2013-05-31 07:25:00,64.9,62.8,29.91,South,170,0.0,5.0,93,0.10,,,0.10,VWS V14.01,2013-05-31 11:25:00,
2013-05-31 07:30:00,64.7,62.6,29.91,WSW,238,0.0,3.0,93,0.11,,,0.11,VWS V14.01,2013-05-31 11:30:00,
2013-05-31 07:35:00,64.6,62.8,29.91,SE,140,1.0,3.0,94,0.12,,,0.12,VWS V14.01,2013-05-31 11:35:00,
2013-05-31 07:40:00,64.5,63.0,29.91,South,176,2.0,4.0,95,0.12,,,0.12,VWS V14.01,2013-05-31 11:40:00,
2013-05-31 07:45:00,64.5,63.0,29.92,SSW,199,1.0,4.0,95,0.13,,,0.13,VWS V14.01,2013-05-31 11:45:00,
2013-05-31 07:50:00,64.6,63.1,29.92,SSE,160,1.0,4.0,95,0.14,,,0.14,VWS V14.01,2013-05-31 11:50:00,
2013-05-31 07:55:00,64.6,63.1,29.93,SSW,208,0.0,4.0,95,0.15,,,0.15,VWS V14.01,2013-05-31 11:55:00,
2013-05-31 08:00:00,64.6,63.4,29.92,SSE,162,0.0,4.0,96,0.18,,,0.19,VWS V14.01,2013-05-31 12:00:00,
2013-05-31 08:05:00,64.7,63.5,29.92,SE,145,3.0,5.0,96,0.25,,,0.26,VWS V14.01,2013-05-31 12:05:00,
2013-05-31 08:10:00,64.7,63.5,29.91,ESE,115,2.0,5.0,96,0.29,,,0.30,VWS V14.01,2013-05-31 12:10:00,
2013-05-31 08:15:00,64.6,63.4,29.90,SE,139,4.0,5.0,96,0.31,,,0.32,VWS V14.01,2013-05-31 12:15:00,
2013-05-31 08:20:00,64.7,63.5,29.90,SE,140,3.0,5.0,96,0.32,,,0.33,VWS V14.01,2013-05-31 12:20:00,
2013-05-31 08:25:00,64.7,63.5,29.90,SE,145,2.0,5.0,96,0.33,,,0.34,VWS V14.01,2013-05-31 12:25:00,
2013-05-31 08:30:00,64.7,63.5,29.90,SE,145,3.0,4.0,96,0.24,,,0.34,VWS V14.01,2013-05-31 12:30:00,
2013-05-31 08:35:00,64.7,63.5,29.90,SE,146,4.0,6.0,96,0.25,,,0.35,VWS V14.01,2013-05-31 12:35:00,
2013-05-31 08:40:00,64.8,63.6,29.89,SSE,163,3.0,6.0,96,0.25,,,0.35,VWS V14.01,2013-05-31 12:40:00,
2013-05-31 08:45:00,64.9,63.7,29.89,SSE,150,2.0,6.0,96,0.25,,,0.35,VWS V14.01,2013-05-31 12:45:00,
2013-05-31 08:50:00,64.9,63.7,29.89,ESE,115,5.0,7.0,96,0.25,,,0.35,VWS V14.01,2013-05-31 12:50:00,
2013-05-31 08:55:00,64.9,63.7,29.89,SE,125,5.0,7.0,96,0.26,,,0.36,VWS V14.01,2013-05-31 12:55:00,
2013-05-31 09:00:00,64.9,63.7,29.89,SE,125,3.0,6.0,96,0.21,,,0.36,VWS V14.01,2013-05-31 13:00:00,
2013-05-31 09:05:00,64.9,63.7,29.89,SSE,165,3.0,10.0,96,0.21,,,0.36,VWS V14.01,2013-05-31 13:05:00,
2013-05-31 09:10:00,65.0,63.8,29.89,SE,142,3.0,10.0,96,0.21,,,0.36,VWS V14.01,2013-05-31 13:10:00,
2013-05-31 09:15:00,65.1,63.9,29.89,South,183,5.0,10.0,96,0.21,,,0.36,VWS V14.01,2013-05-31 13:15:00,
2013-05-31 09:20:00,65.3,64.4,29.90,South,173,6.0,10.0,97,0.21,,,0.36,VWS V14.01,2013-05-31 13:20:00,
2013-05-31 09:25:00,65.4,64.2,29.91,SE,145,7.0,10.0,96,0.21,,,0.36,VWS V14.01,2013-05-31 13:25:00,
2013-05-31 09:30:00,65.4,64.2,29.92,SW,224,4.0,10.0,96,0.02,,,0.36,VWS V14.01,2013-05-31 13:30:00,
2013-05-31 09:35:00,65.5,64.3,29.92,WSW,247,2.0,10.0,96,0.02,,,0.36,VWS V14.01,2013-05-31 13:35:00,
2013-05-31 09:40:00,65.6,64.4,29.92,SSE,155,8.0,10.0,96,0.02,,,0.36,VWS V14.01,2013-05-31 13:40:00,
2013-05-31 09:45:00,65.6,64.4,29.92,SE,145,7.0,10.0,96,0.02,,,0.36,VWS V14.01,2013-05-31 13:45:00,
2013-05-31 09:50:00,65.8,64.6,29.92,SSE,148,5.0,10.0,96,0.02,,,0.36,VWS V14.01,2013-05-31 13:50:00,
2013-05-31 09:55:00,66.0,64.8,29.91,South,173,6.0,10.0,96,0.02,,,0.36,VWS V14.01,2013-05-31 13:55:00,
2013-05-31 10:00:00,66.1,64.9,29.91,SE,142,2.0,9.0,96,0.00,,,0.36,VWS V14.01,2013-05-31 14:00:00,
2013-05-31 10:05:00,66.2,65.0,29.90,SE,135,5.0,9.0,96,0.00,,,0.36,VWS V14.01,2013-05-31 14:05:00,
2013-05-31 10:10:00,66.4,65.2,29.90,SSW,193,2.0,9.0,96,0.00,,,0.36,VWS V14.01,2013-05-31 14:10:00,
2013-05-31 10:15:00,66.5,65.3,29.90,SE,142,4.0,9.0,96,0.00,,,0.36,VWS V14.01,2013-05-31 14:15:00,
2013-05-31 10:20:00,66.6,65.4,29.90,SE,131,5.0,9.0,96,0.00,,,0.36,VWS V14.01,2013-05-31 14:20:00,
2013-05-31 10:25:00,66.7,65.5,29.90,ESE,120,2.0,9.0,96,0.00,,,0.36,VWS V14.01,2013-05-31 14:25:00,
2013-05-31 10:30:00,66.8,65.6,29.90,SE,142,1.0,6.0,96,0.00,,,0.36,VWS V14.01,2013-05-31 14:30:00,
2013-05-31 10:35:00,67.1,65.9,29.91,SSE,153,1.0,6.0,96,0.00,,,0.36,VWS V14.01,2013-05-31 14:35:00,
2013-05-31 10:40:00,67.3,66.1,29.91,SE,142,8.0,8.0,96,0.00,,,0.36,VWS V14.01,2013-05-31 14:40:00,
2013-05-31 10:45:00,67.3,65.8,29.90,SSE,162,6.0,8.0,95,0.00,,,0.36,VWS V14.01,2013-05-31 14:45:00,
2013-05-31 10:50:00,67.5,66.0,29.90,West,269,1.0,8.0,95,0.00,,,0.36,VWS V14.01,2013-05-31 14:50:00,
2013-05-31 10:55:00,67.8,66.3,29.90,SE,132,1.0,8.0,95,0.00,,,0.36,VWS V14.01,2013-05-31 14:55:00,
2013-05-31 11:00:00,68.2,66.4,29.90,SSW,210,1.0,9.0,94,0.00,,,0.36,VWS V14.01,2013-05-31 15:00:00,
2013-05-31 11:05:00,68.5,66.7,29.90,SE,146,11.0,11.0,94,0.00,,,0.36,VWS V14.01,2013-05-31 15:05:00,
2013-05-31 11:10:00,68.6,66.5,29.90,South,186,8.0,11.0,93,0.00,,,0.36,VWS V14.01,2013-05-31 15:10:00,
2013-05-31 11:15:00,68.8,66.4,29.90,SE,145,5.0,11.0,92,0.00,,,0.36,VWS V14.01,2013-05-31 15:15:00,
2013-05-31 11:20:00,69.0,66.6,29.91,SW,221,2.0,11.0,92,0.00,,,0.36,VWS V14.01,2013-05-31 15:20:00,
2013-05-31 11:25:00,69.3,66.9,29.91,SW,224,1.0,11.0,92,0.00,,,0.36,VWS V14.01,2013-05-31 15:25:00,
2013-05-31 11:30:00,69.5,66.8,29.91,SSE,148,3.0,11.0,91,0.00,,,0.36,VWS V14.01,2013-05-31 15:30:00,
2013-05-31 11:35:00,69.7,67.0,29.91,SE,139,4.0,12.0,91,0.00,,,0.36,VWS V14.01,2013-05-31 15:35:00,
2013-05-31 11:40:00,69.9,67.2,29.91,SE,128,5.0,12.0,91,0.00,,,0.36,VWS V14.01,2013-05-31 15:40:00,
2013-05-31 11:45:00,70.1,67.0,29.90,SSE,148,5.0,12.0,90,0.00,,,0.36,VWS V14.01,2013-05-31 15:45:00,
2013-05-31 11:50:00,70.2,67.1,29.91,SSE,165,3.0,12.0,90,0.00,,,0.36,VWS V14.01,2013-05-31 15:50:00,
2013-05-31 11:55:00,70.2,67.1,29.91,South,172,4.0,12.0,90,0.00,,,0.36,VWS V14.01,2013-05-31 15:55:00,
2013-05-31 12:00:00,70.1,66.7,29.91,South,181,5.0,11.0,89,0.00,,,0.36,VWS V14.01,2013-05-31 16:00:00,
2013-05-31 12:05:00,70.2,67.0,29.91,SE,128,4.0,11.0,89,0.00,,,0.36,weatherlink.com 1.10,2013-05-31 16:05:00,
2013-05-31 12:10:00,70.1,66.7,29.91,SSE,162,0.0,11.0,89,0.00,,,0.36,VWS V14.01,2013-05-31 16:10:00,
2013-05-31 12:15:00,70.1,66.7,29.91,SSW,207,5.0,11.0,89,0.00,,,0.36,VWS V14.01,2013-05-31 16:15:00,
2013-05-31 12:20:00,70.2,66.8,29.92,SSE,159,4.0,11.0,89,0.00,,,0.36,VWS V14.01,2013-05-31 16:20:00,
2013-05-31 12:25:00,70.3,66.9,29.92,SSW,205,2.0,11.0,89,0.00,,,0.36,VWS V14.01,2013-05-31 16:25:00,
2013-05-31 12:30:00,70.4,67.0,29.91,West,275,2.0,5.0,89,0.00,,,0.36,VWS V14.01,2013-05-31 16:30:00,
2013-05-31 12:35:00,70.5,67.1,29.91,East,98,3.0,7.0,89,0.00,,,0.36,VWS V14.01,2013-05-31 16:35:00,
2013-05-31 12:40:00,70.6,67.2,29.92,SSE,166,1.0,7.0,89,0.00,,,0.36,VWS V14.01,2013-05-31 16:40:00,
2013-05-31 12:45:00,70.8,67.4,29.91,South,184,3.0,7.0,89,0.00,,,0.36,VWS V14.01,2013-05-31 16:45:00,
2013-05-31 12:50:00,71.1,67.7,29.91,WSW,253,2.0,7.0,89,0.00,,,0.36,VWS V14.01,2013-05-31 16:50:00,
2013-05-31 12:55:00,71.5,67.8,29.92,SE,129,2.0,9.0,88,0.00,,,0.36,VWS V14.01,2013-05-31 16:55:00,
2013-05-31 13:00:00,72.1,68.0,29.92,SSE,150,4.0,9.0,87,0.00,,,0.36,VWS V14.01,2013-05-31 17:00:00,
2013-05-31 13:05:00,72.7,68.6,29.92,SSE,154,4.0,9.0,87,0.00,,,0.36,VWS V14.01,2013-05-31 17:05:00,
2013-05-31 13:10:00,72.7,68.3,29.92,South,176,3.0,12.0,86,0.00,,,0.36,VWS V14.01,2013-05-31 17:10:00,
2013-05-31 13:15:00,72.4,68.0,29.92,SSW,193,1.0,14.0,86,0.00,,,0.36,VWS V14.01,2013-05-31 17:15:00,
2013-05-31 13:20:00,72.2,67.8,29.92,SSW,203,2.0,14.0,86,0.00,,,0.36,VWS V14.01,2013-05-31 17:20:00,
2013-05-31 13:25:00,71.9,67.8,29.92,SSW,198,4.0,14.0,87,0.00,,,0.36,VWS V14.01,2013-05-31 17:25:00,
2013-05-31 13:30:00,71.9,68.5,29.92,South,183,6.0,6.0,89,0.00,,,0.36,VWS V14.01,2013-05-31 17:30:00,
2013-05-31 13:35:00,71.5,67.8,29.91,SSE,156,3.0,10.0,88,0.00,,,0.36,VWS V14.01,2013-05-31 17:35:00,
2013-05-31 13:40:00,71.2,67.8,29.90,West,281,1.0,10.0,89,0.00,,,0.36,VWS V14.01,2013-05-31 17:40:00,
2013-05-31 13:45:00,71.0,67.9,29.90,SSE,155,4.0,10.0,90,0.00,,,0.36,VWS V14.01,2013-05-31 17:45:00,
2013-05-31 13:50:00,71.1,68.0,29.90,SSW,194,1.0,10.0,90,0.00,,,0.36,VWS V14.01,2013-05-31 17:50:00,
2013-05-31 13:55:00,71.5,68.4,29.89,SE,140,6.0,10.0,90,0.00,,,0.36,VWS V14.01,2013-05-31 17:55:00,
2013-05-31 14:00:00,72.2,69.1,29.88,SW,215,2.0,5.0,90,0.00,,,0.36,VWS V14.01,2013-05-31 18:00:00,
2013-05-31 14:05:00,73.2,69.4,29.88,SSE,166,5.0,10.0,88,0.00,,,0.36,VWS V14.01,2013-05-31 18:05:00,
2013-05-31 14:10:00,73.1,68.3,29.88,South,180,8.0,11.0,85,0.00,,,0.36,VWS V14.01,2013-05-31 18:10:00,
2013-05-31 14:15:00,72.9,68.5,29.88,South,181,4.0,11.0,86,0.00,,,0.36,VWS V14.01,2013-05-31 18:15:00,
2013-05-31 14:20:00,72.8,68.4,29.88,SE,128,7.0,11.0,86,0.00,,,0.36,VWS V14.01,2013-05-31 18:20:00,
2013-05-31 14:25:00,72.7,68.3,29.88,SE,141,4.0,11.0,86,0.00,,,0.36,VWS V14.01,2013-05-31 18:25:00,
2013-05-31 14:30:00,72.5,68.1,29.88,SSW,201,4.0,12.0,86,0.00,,,0.36,VWS V14.01,2013-05-31 18:30:00,
2013-05-31 14:35:00,72.4,68.0,29.88,SSW,195,1.0,12.0,86,0.00,,,0.36,VWS V14.01,2013-05-31 18:35:00,
2013-05-31 14:40:00,72.6,68.2,29.88,SE,131,6.0,12.0,86,0.00,,,0.36,VWS V14.01,2013-05-31 18:40:00,
2013-05-31 14:45:00,72.4,68.0,29.88,SW,235,5.0,12.0,86,0.00,,,0.36,VWS V14.01,2013-05-31 18:45:00,
2013-05-31 14:50:00,72.3,67.9,29.88,ESE,117,1.0,12.0,86,0.00,,,0.36,VWS V14.01,2013-05-31 18:50:00,
2013-05-31 14:55:00,72.2,68.1,29.88,SW,229,4.0,12.0,87,0.00,,,0.36,VWS V14.01,2013-05-31 18:55:00,
2013-05-31 15:00:00,72.0,67.9,29.88,SSW,204,9.0,9.0,87,0.00,,,0.36,VWS V14.01,2013-05-31 19:00:00,
2013-05-31 15:05:00,72.2,68.1,29.88,WSW,238,1.0,10.0,87,0.00,,,0.36,VWS V14.01,2013-05-31 19:05:00,
2013-05-31 15:10:00,72.7,68.3,29.88,South,179,6.0,11.0,86,0.00,,,0.36,VWS V14.01,2013-05-31 19:10:00,
2013-05-31 15:15:00,73.0,68.2,29.88,ESE,115,4.0,11.0,85,0.00,,,0.36,VWS V14.01,2013-05-31 19:15:00,
2013-05-31 15:20:00,73.9,68.8,29.87,SSW,200,7.0,11.0,84,0.00,,,0.36,VWS V14.01,2013-05-31 19:20:00,
2013-05-31 15:25:00,74.9,69.4,29.87,SSW,210,5.0,12.0,83,0.00,,,0.36,VWS V14.01,2013-05-31 19:25:00,
2013-05-31 15:30:00,75.4,69.5,29.86,SW,232,3.0,14.0,82,0.00,,,0.36,VWS V14.01,2013-05-31 19:30:00,
2013-05-31 15:35:00,75.4,69.5,29.86,SSW,210,4.0,14.0,82,0.00,,,0.36,VWS V14.01,2013-05-31 19:35:00,
2013-05-31 15:40:00,75.5,69.3,29.86,SE,131,2.0,14.0,81,0.00,,,0.36,VWS V14.01,2013-05-31 19:40:00,
2013-05-31 15:45:00,75.5,69.6,29.86,SE,138,1.0,14.0,82,0.00,,,0.36,VWS V14.01,2013-05-31 19:45:00,
2013-05-31 15:50:00,75.5,69.3,29.85,SSE,158,1.0,14.0,81,0.00,,,0.36,VWS V14.01,2013-05-31 19:50:00,
2013-05-31 15:55:00,75.3,69.1,29.85,NNW,347,1.0,14.0,81,0.00,,,0.36,VWS V14.01,2013-05-31 19:55:00,
2013-05-31 16:00:00,75.5,69.6,29.85,SE,145,3.0,8.0,82,0.00,,,0.36,VWS V14.01,2013-05-31 20:00:00,
2013-05-31 16:05:00,75.7,69.5,29.84,ESE,115,4.0,11.0,81,0.00,,,0.36,VWS V14.01,2013-05-31 20:05:00,
2013-05-31 16:10:00,75.6,69.4,29.84,ESE,120,8.0,11.0,81,0.00,,,0.36,VWS V14.01,2013-05-31 20:10:00,
2013-05-31 16:15:00,75.9,70.0,29.84,South,181,5.0,11.0,82,0.00,,,0.36,VWS V14.01,2013-05-31 20:15:00,
2013-05-31 16:20:00,76.3,69.7,29.84,WSW,243,2.0,11.0,80,0.00,,,0.36,VWS V14.01,2013-05-31 20:20:00,
2013-05-31 16:25:00,76.7,70.1,29.84,ESE,105,1.0,11.0,80,0.00,,,0.36,VWS V14.01,2013-05-31 20:25:00,
2013-05-31 16:30:00,76.7,69.7,29.84,SW,231,3.0,8.0,79,0.00,,,0.36,VWS V14.01,2013-05-31 20:30:00,
2013-05-31 16:35:00,76.4,69.4,29.84,SW,217,6.0,14.0,79,0.00,,,0.36,VWS V14.01,2013-05-31 20:35:00,
2013-05-31 16:40:00,76.4,69.8,29.84,WNW,300,5.0,14.0,80,0.00,,,0.36,VWS V14.01,2013-05-31 20:40:00,
2013-05-31 16:45:00,76.6,70.0,29.84,South,188,7.0,14.0,80,0.00,,,0.36,VWS V14.01,2013-05-31 20:45:00,
2013-05-31 16:50:00,76.4,69.4,29.84,SSW,207,2.0,14.0,79,0.00,,,0.36,VWS V14.01,2013-05-31 20:50:00,
2013-05-31 16:55:00,76.3,68.9,29.84,South,170,3.0,14.0,78,0.00,,,0.36,VWS V14.01,2013-05-31 20:55:00,
2013-05-31 17:00:00,76.4,69.0,29.83,East,88,2.0,10.0,78,0.00,,,0.36,VWS V14.01,2013-05-31 21:00:00,
2013-05-31 17:05:00,76.7,69.7,29.83,SW,217,2.0,10.0,79,0.00,,,0.36,VWS V14.01,2013-05-31 21:05:00,
2013-05-31 17:10:00,77.0,70.0,29.83,SSE,150,4.0,10.0,79,0.00,,,0.36,VWS V14.01,2013-05-31 21:10:00,
2013-05-31 17:15:00,76.9,69.5,29.82,SW,235,2.0,10.0,78,0.00,,,0.36,VWS V14.01,2013-05-31 21:15:00,
2013-05-31 17:20:00,77.0,69.6,29.82,WSW,243,2.0,10.0,78,0.00,,,0.36,VWS V14.01,2013-05-31 21:20:00,
2013-05-31 17:25:00,77.2,69.4,29.82,WSW,250,2.0,10.0,77,0.00,,,0.36,VWS V14.01,2013-05-31 21:25:00,
2013-05-31 17:30:00,77.1,69.3,29.82,SE,131,6.0,6.0,77,0.00,,,0.36,VWS V14.01,2013-05-31 21:30:00,
2013-05-31 17:35:00,77.1,69.3,29.82,SE,145,0.0,6.0,77,0.00,,,0.36,VWS V14.01,2013-05-31 21:35:00,
2013-05-31 17:40:00,77.1,69.3,29.82,SSE,167,1.0,7.0,77,0.00,,,0.36,VWS V14.01,2013-05-31 21:40:00,
2013-05-31 17:45:00,77.2,69.8,29.83,East,96,5.0,7.0,78,0.00,,,0.36,VWS V14.01,2013-05-31 21:45:00,
2013-05-31 17:50:00,76.8,69.8,29.83,SSE,157,5.0,9.0,79,0.00,,,0.36,VWS V14.01,2013-05-31 21:50:00,
2013-05-31 17:55:00,76.6,70.0,29.83,ESE,103,1.0,9.0,80,0.00,,,0.36,VWS V14.01,2013-05-31 21:55:00,
2013-05-31 18:00:00,76.4,70.1,29.83,SW,229,1.0,5.0,81,0.00,,,0.36,VWS V14.01,2013-05-31 22:00:00,
2013-05-31 18:05:00,76.3,70.1,29.83,SE,132,0.0,6.0,81,0.00,,,0.36,VWS V14.01,2013-05-31 22:05:00,
2013-05-31 18:10:00,76.2,69.9,29.83,SSW,200,2.0,6.0,81,0.00,,,0.36,VWS V14.01,2013-05-31 22:10:00,
2013-05-31 18:14:00,75.9,69.7,29.83,SSE,153,3.0,8.0,81,0.00,,,0.36,VWS V14.01,2013-05-31 22:14:00,
2013-05-31 18:20:00,75.9,70.0,29.83,SE,139,4.0,8.0,82,0.00,,,0.36,VWS V14.01,2013-05-31 22:20:00,
2013-05-31 18:24:00,75.7,69.8,29.82,SSE,156,1.0,8.0,82,0.00,,,0.36,VWS V14.01,2013-05-31 22:24:00,
2013-05-31 18:29:00,75.3,69.4,29.82,SSE,150,3.0,8.0,82,0.00,,,0.36,VWS V14.01,2013-05-31 22:29:00,
2013-05-31 18:30:00,75.6,69.7,29.82,SE,135,6.0,8.0,82,0.00,,,0.36,VWS V14.01,2013-05-31 22:30:00,
2013-05-31 18:34:00,75.2,69.7,29.82,South,176,1.0,8.0,83,0.00,,,0.36,VWS V14.01,2013-05-31 22:34:00,
2013-05-31 18:39:00,75.2,69.3,29.83,SE,142,3.0,10.0,82,0.00,,,0.36,VWS V14.01,2013-05-31 22:39:00,
2013-05-31 18:44:00,75.2,69.3,29.83,SE,142,6.0,10.0,82,0.00,,,0.36,VWS V14.01,2013-05-31 22:44:00,
2013-05-31 18:49:00,75.2,69.3,29.83,SSE,154,6.0,10.0,82,0.00,,,0.36,VWS V14.01,2013-05-31 22:49:00,
2013-05-31 18:54:00,75.4,69.5,29.84,SW,232,1.0,10.0,82,0.00,,,0.36,VWS V14.01,2013-05-31 22:54:00,
2013-05-31 18:59:00,75.4,69.2,29.84,SSE,165,6.0,11.0,81,0.00,,,0.36,VWS V14.01,2013-05-31 22:59:00,
2013-05-31 19:00:00,75.4,69.2,29.84,SE,142,4.0,11.0,81,0.00,,,0.36,VWS V14.01,2013-05-31 23:00:00,
2013-05-31 19:04:00,75.3,69.1,29.84,SE,134,3.0,11.0,81,0.00,,,0.36,VWS V14.01,2013-05-31 23:04:00,
2013-05-31 19:09:00,75.1,68.9,29.83,SW,229,2.0,12.0,81,0.00,,,0.36,VWS V14.01,2013-05-31 23:09:00,
2013-05-31 19:14:00,75.0,68.8,29.83,ESE,110,3.0,12.0,81,0.00,,,0.36,VWS V14.01,2013-05-31 23:14:00,
2013-05-31 19:19:00,75.1,68.9,29.83,SE,125,3.0,12.0,81,0.00,,,0.36,VWS V14.01,2013-05-31 23:19:00,
2013-05-31 19:24:00,75.6,69.4,29.83,SSW,205,2.0,12.0,81,0.00,,,0.36,VWS V14.01,2013-05-31 23:24:00,
2013-05-31 19:29:00,75.8,69.6,29.82,SE,141,5.0,12.0,81,0.00,,,0.36,VWS V14.01,2013-05-31 23:29:00,
2013-05-31 19:30:00,75.8,69.6,29.82,SE,128,4.0,12.0,81,0.00,,,0.36,VWS V14.01,2013-05-31 23:30:00,
2013-05-31 19:34:00,76.0,69.4,29.82,SSE,159,4.0,12.0,80,0.00,,,0.36,VWS V14.01,2013-05-31 23:34:00,
2013-05-31 19:39:00,76.2,69.6,29.82,South,187,4.0,12.0,80,0.00,,,0.36,VWS V14.01,2013-05-31 23:39:00,
2013-05-31 19:44:00,76.1,69.5,29.81,SSE,160,9.0,12.0,80,0.00,,,0.36,VWS V14.01,2013-05-31 23:44:00,
2013-05-31 19:49:00,75.8,69.6,29.81,SE,136,7.0,12.0,81,0.00,,,0.36,VWS V14.01,2013-05-31 23:49:00,
2013-05-31 19:54:00,75.6,69.4,29.81,SSW,193,6.0,12.0,81,0.00,,,0.36,VWS V14.01,2013-05-31 23:54:00,
2013-05-31 19:59:00,75.4,69.5,29.81,West,270,1.0,8.0,82,0.00,,,0.36,VWS V14.01,2013-05-31 23:59:00,
2013-05-31 20:00:00,75.5,69.3,29.81,SSE,165,3.0,12.0,81,0.00,,,0.36,VWS V14.01,2013-06-01 00:00:00,
2013-05-31 20:04:00,75.2,69.3,29.81,SE,142,5.0,11.0,82,0.00,,,0.36,VWS V14.01,2013-06-01 00:04:00,
2013-05-31 20:09:00,75.1,69.2,29.81,SE,127,2.0,11.0,82,0.00,,,0.36,VWS V14.01,2013-06-01 00:09:00,
2013-05-31 20:14:00,75.1,69.2,29.80,South,172,3.0,11.0,82,0.00,,,0.36,VWS V14.01,2013-06-01 00:14:00,
2013-05-31 20:22:00,75.0,69.1,29.80,SE,139,3.0,3.0,82,0.00,,,0.36,VWS V14.01,2013-06-01 00:22:00,
2013-05-31 20:27:00,74.9,68.7,29.79,SSW,207,4.0,11.0,81,0.00,,,0.36,VWS V14.01,2013-06-01 00:27:00,
2013-05-31 20:30:00,74.9,68.7,29.79,SE,138,5.0,10.0,81,0.00,,,0.36,VWS V14.01,2013-06-01 00:30:00,
2013-05-31 20:32:00,74.7,68.8,29.79,SE,131,9.0,13.0,82,0.00,,,0.36,VWS V14.01,2013-06-01 00:32:00,
2013-05-31 20:37:00,74.6,68.8,29.79,SE,145,8.0,13.0,82,0.00,,,0.36,VWS V14.01,2013-06-01 00:37:00,
2013-05-31 20:42:00,74.4,68.9,29.79,SE,145,3.0,13.0,83,0.00,,,0.36,VWS V14.01,2013-06-01 00:42:00,
2013-05-31 20:47:00,74.2,68.7,29.79,SSE,167,4.0,13.0,83,0.00,,,0.36,VWS V14.01,2013-06-01 00:47:00,
2013-05-31 20:52:00,74.1,69.0,29.79,SE,131,5.0,13.0,84,0.00,,,0.36,VWS V14.01,2013-06-01 00:52:00,
2013-05-31 20:57:00,74.1,69.0,29.79,SSE,167,6.0,6.0,84,0.00,,,0.36,VWS V14.01,2013-06-01 00:57:00,
2013-05-31 21:00:00,74.1,69.0,29.79,ESE,108,4.0,13.0,84,0.00,,,0.36,VWS V14.01,2013-06-01 01:00:00,
2013-05-31 21:02:00,74.0,68.9,29.78,SSE,148,6.0,12.0,84,0.00,,,0.36,VWS V14.01,2013-06-01 01:02:00,
2013-05-31 21:07:00,74.0,68.9,29.79,SSE,150,1.0,12.0,84,0.00,,,0.36,VWS V14.01,2013-06-01 01:07:00,
2013-05-31 21:12:00,73.9,69.1,29.79,SSE,162,7.0,12.0,85,0.00,,,0.36,VWS V14.01,2013-06-01 01:12:00,
2013-05-31 21:17:00,73.7,69.3,29.79,South,183,2.0,12.0,86,0.00,,,0.36,VWS V14.01,2013-06-01 01:17:00,
2013-05-31 21:22:00,73.4,69.3,29.79,SSE,165,6.0,12.0,87,0.00,,,0.36,VWS V14.01,2013-06-01 01:22:00,
2013-05-31 21:27:00,73.2,69.1,29.80,SSE,167,7.0,8.0,87,0.00,,,0.36,VWS V14.01,2013-06-01 01:27:00,
2013-05-31 21:30:00,73.3,69.2,29.80,SE,139,7.0,12.0,87,0.00,,,0.36,VWS V14.01,2013-06-01 01:30:00,
2013-05-31 21:32:00,73.2,69.1,29.80,SE,140,3.0,9.0,87,0.00,,,0.36,VWS V14.01,2013-06-01 01:32:00,
2013-05-31 21:37:00,73.1,69.0,29.80,SSE,160,4.0,11.0,87,0.00,,,0.36,VWS V14.01,2013-06-01 01:37:00,
2013-05-31 21:42:00,73.1,69.0,29.80,South,178,4.0,11.0,87,0.00,,,0.36,VWS V14.01,2013-06-01 01:42:00,
2013-05-31 21:47:00,73.0,68.9,29.80,East,91,6.0,13.0,87,0.00,,,0.36,VWS V14.01,2013-06-01 01:47:00,
2013-05-31 21:52:00,72.9,68.8,29.80,SSE,155,4.0,13.0,87,0.00,,,0.36,VWS V14.01,2013-06-01 01:52:00,
2013-05-31 21:57:00,72.9,68.8,29.80,South,170,6.0,6.0,87,0.00,,,0.36,VWS V14.01,2013-06-01 01:57:00,
2013-05-31 22:00:00,72.9,68.8,29.80,SE,139,8.0,13.0,87,0.00,,,0.36,VWS V14.01,2013-06-01 02:00:00,
2013-05-31 22:02:00,72.8,68.7,29.80,SE,125,4.0,11.0,87,0.00,,,0.36,VWS V14.01,2013-06-01 02:02:00,
2013-05-31 22:07:00,72.7,68.6,29.81,SSE,155,5.0,11.0,87,0.00,,,0.36,VWS V14.01,2013-06-01 02:07:00,
2013-05-31 22:12:00,72.6,68.5,29.81,South,175,0.0,11.0,87,0.00,,,0.36,VWS V14.01,2013-06-01 02:12:00,
2013-05-31 22:17:00,72.6,68.8,29.81,SSE,148,5.0,11.0,88,0.00,,,0.36,VWS V14.01,2013-06-01 02:17:00,
2013-05-31 22:22:00,72.6,68.8,29.81,SE,129,4.0,11.0,88,0.00,,,0.36,VWS V14.01,2013-06-01 02:22:00,
2013-05-31 22:27:00,72.5,68.8,29.81,SSE,152,5.0,8.0,88,0.00,,,0.36,VWS V14.01,2013-06-01 02:27:00,
2013-05-31 22:30:00,72.5,68.8,29.81,SE,143,1.0,11.0,88,0.00,,,0.36,VWS V14.01,2013-06-01 02:30:00,
2013-05-31 22:32:00,72.5,68.8,29.81,SE,134,4.0,8.0,88,0.00,,,0.36,VWS V14.01,2013-06-01 02:32:00,
2013-05-31 22:37:00,72.5,68.8,29.82,SSE,150,3.0,9.0,88,0.00,,,0.36,VWS V14.01,2013-06-01 02:37:00,
2013-05-31 22:42:00,72.5,68.8,29.83,SSE,153,5.0,9.0,88,0.00,,,0.36,VWS V14.01,2013-06-01 02:42:00,
2013-05-31 22:47:00,72.5,68.8,29.83,SE,145,4.0,10.0,88,0.00,,,0.36,VWS V14.01,2013-06-01 02:47:00,
2013-05-31 22:52:00,72.5,68.8,29.83,SSW,212,1.0,10.0,88,0.00,,,0.36,VWS V14.01,2013-06-01 02:52:00,
2013-05-31 22:57:00,72.5,68.8,29.83,SSW,210,4.0,8.0,88,0.00,,,0.36,VWS V14.01,2013-06-01 02:57:00,
2013-05-31 23:00:00,72.5,68.8,29.83,SE,131,3.0,10.0,88,0.00,,,0.36,VWS V14.01,2013-06-01 03:00:00,
2013-05-31 23:02:00,72.4,68.7,29.83,SW,215,2.0,8.0,88,0.00,,,0.36,VWS V14.01,2013-06-01 03:02:00,
2013-05-31 23:07:00,72.4,68.7,29.83,SSW,193,1.0,8.0,88,0.00,,,0.36,VWS V14.01,2013-06-01 03:07:00,
2013-05-31 23:12:00,72.3,68.9,29.83,SSW,207,3.0,8.0,89,0.00,,,0.36,VWS V14.01,2013-06-01 03:12:00,
2013-05-31 23:17:00,72.3,68.9,29.83,ESE,120,7.0,8.0,89,0.00,,,0.36,VWS V14.01,2013-06-01 03:17:00,
2013-05-31 23:22:00,72.3,68.9,29.83,ESE,120,4.0,8.0,89,0.00,,,0.36,VWS V14.01,2013-06-01 03:22:00,
2013-05-31 23:27:00,72.4,69.0,29.83,WSW,244,4.0,4.0,89,0.00,,,0.36,VWS V14.01,2013-06-01 03:27:00,
2013-05-31 23:30:00,72.4,69.0,29.83,SE,142,1.0,8.0,89,0.00,,,0.36,VWS V14.01,2013-06-01 03:30:00,
2013-05-31 23:32:00,72.6,69.2,29.83,South,188,4.0,9.0,89,0.00,,,0.36,VWS V14.01,2013-06-01 03:32:00,
2013-05-31 23:37:00,72.8,69.4,29.83,SSE,159,6.0,11.0,89,0.00,,,0.36,VWS V14.01,2013-06-01 03:37:00,
2013-05-31 23:42:00,72.9,69.1,29.83,South,191,1.0,11.0,88,0.00,,,0.36,VWS V14.01,2013-06-01 03:42:00,
2013-05-31 23:47:00,73.0,69.2,29.82,SW,218,3.0,11.0,88,0.00,,,0.36,VWS V14.01,2013-06-01 03:47:00,
2013-05-31 23:52:00,73.1,69.3,29.82,South,184,3.0,11.0,88,0.00,,,0.36,VWS V14.01,2013-06-01 03:52:00,
2013-05-31 23:57:00,73.1,69.7,29.82,SSW,195,2.0,4.0,89,0.00,,,0.00,VWS V14.01,2013-06-01 03:57:00,